Regional Weather Roundup
Issued by NWS

Home | Current Version | Previous Version | Text Only | Print | Product List | Glossary On
Versions: 1 2 3 4 5 6 7 8 9 10 11 12 13 14 15 16 17 18 19 20 21 22 23 24 25 26 27 28 29 30 31 32 33 34 35 36 37 38 39 40 41 42 43 44 45 46 47 48 49 50
000
ASUS43 KLSX 190007
RWRMO

WEATHER SUMMARY FOR MISSOURI
NATIONAL WEATHER SERVICE SPRINGFIELD MO
700 PM CDT THU SEP 18 2014

NOTE: "FAIR" INDICATES FEW OR NO CLOUDS BELOW 12,000 FEET WITH NO
       SIGNIFICANT WEATHER AND/OR OBSTRUCTIONS TO VISIBILITY.
       CURRENT SKY AND/OR WEATHER CONDITIONS ARE NOT AVAILABLE FOR
       CHILLICOTHE AND FARMINGTON.

MOZ001>031-035>038-043-044-053-054-190100-
...NORTHERN AND WESTERN MISSOURI...

CITY           SKY/WX    TMP DP  RH WIND       PRES   REMARKS
KANSAS CTY INT MOCLDY    66  61  84 E7        30.01S
6HR MIN TEMP:  64; 6HR MAX TEMP:  66;

KANSAS C DTWN  CLOUDY    68  62  81 E5        30.00S
6HR MIN TEMP:  66; 6HR MAX TEMP:  68;

LEE`S SUMMIT   CLOUDY    66  62  87 E5        30.01S
6HR MIN TEMP:  64; 6HR MAX TEMP:  67;

ST JOSEPH      CLOUDY    67  60  78 SE5       30.00S
6HR MIN TEMP:  63; 6HR MAX TEMP:  67;

CHILLICOTHE      N/A     69  59  70 CALM      30.02R
6HR MIN TEMP:  66; 6HR MAX TEMP:  72;

KIRKSVILLE     CLEAR     65  56  72 SE5       30.04R
6HR MIN TEMP:  65; 6HR MAX TEMP:  73;


$$
MOZ066>068-077>081-088>096-101>105-190100-
...SOUTHWEST MISSOURI...

CITY           SKY/WX    TMP DP  RH WIND       PRES   REMARKS
SPRINGFIELD    CLEAR     69  62  78 E7        29.99R
6HR MIN TEMP:  69; 6HR MAX TEMP:  74;

JOPLIN         CLEAR     72  62  71 SE9       29.96R
6HR MIN TEMP:  70; 6HR MAX TEMP:  77;


$$
MOZ032>034-039>042-045>050-055>058-069>072-190100-
...CENTRAL MISSOURI...

CITY           SKY/WX    TMP DP  RH WIND       PRES   REMARKS
COLUMBIA       CLEAR     68  60  75 E7        30.01S
6HR MIN TEMP:  68; 6HR MAX TEMP:  74;

JEFFERSON CITY PTCLDY    70  60  70 E3        30.00R
6HR MIN TEMP:  68; 6HR MAX TEMP:  76;

ROLLA          FOG       64  60  87 CALM      30.00S VSB 1/2
6HR MIN TEMP:  65; 6HR MAX TEMP:  71;

SEDALIA        CLOUDY    69  62  78 SE3       30.01S
6HR MIN TEMP:  67; 6HR MAX TEMP:  72;

WHITEMAN AFB   MOCLDY    67  63  85 SE3       29.99F
OSAGE BEACH    CLOUDY    68  61  77 S3        30.01S

$$
MOZ051-052-059>065-190100-
...EAST CENTRAL MISSOURI...

CITY           SKY/WX    TMP DP  RH WIND       PRES   REMARKS
ST LOUIS INTL  PTCLDY    71  53  52 E6        30.03R
6HR MIN TEMP:  70; 6HR MAX TEMP:  75;

SPIRIT OF STL  PTCLDY    65  57  75 CALM      30.01R
6HR MIN TEMP:  65; 6HR MAX TEMP:  73;

ST CHARLES     CLEAR     70  54  56 SE3       30.02R
6HR MIN TEMP:  70; 6HR MAX TEMP:  74;


$$
MOZ072>076-082>087-097>100-106>115-190100-
...SOUTH CENTRAL AND SOUTHEAST MISSOURI...

CITY           SKY/WX    TMP DP  RH WIND       PRES   REMARKS
CAPE GIRARDEAU CLOUDY    70  62  76 N6        30.00R
6HR MIN TEMP:  70; 6HR MAX TEMP:  76;

FARMINGTON     MOCLDY    70  59  68 E3        30.04R
6HR MIN TEMP:  70; 6HR MAX TEMP:  73;

POPLAR BLUFF   PTCLDY    69  60  73 NE3       29.98R
6HR MIN TEMP:  69; 6HR MAX TEMP:  77;

WEST PLAINS    PTCLDY    65  60  84 CALM      30.03R
6HR MIN TEMP:  62; 6HR MAX TEMP:  68;


$$


USA.gov is the U.S. government's official web portal to all federal, state and local government web resources and services.